Location: *
(45.8589°N, 4.7139°E)
Time: 19:41:26
(UTC+00:00)

Nadezhda 1 Rocket - Pass Details

Date: 09 April 2020
Orbit: 940 x 1006 km, 83.0° (Epoch: 02 June)

Event Time Altitude Azimuth Distance (km) Brightness Sun altitude
Rises 19:15:59 0° 182° (S) 3,719 6.8 -10.0°
Reaches altitude 10° 19:18:31 10° 181° (S) 2,772 6.2 -10.4°
Maximum altitude 19:24:53 80° 96° (E) 1,019 4.0 -11.4°
Drops below altitude 10° 19:31:15 10° 10° (N) 2,762 6.6 -12.4°
Sets 19:33:45 0° 10° (N) 3,706 7.3 -12.8°
